Terug naar catalogus

STARLINK-34673

ActiefCommunicatieVLEO
NORAD 65090·PAYLOAD·🇺🇸 United States

Gelanceerd Aug 4, 2025 vanaf Cape Canaveral Space Force Station

Loading…

Volgende Passages (komende 24 uur)

TLE

VersSource: CelesTrak SupGP

Epoch: Sep 15, 2026, 02:45 UTC

1 65090C 25167N   26258.11506944 -.00048118  00000+0 -15473-2 0  2587
2 65090  53.1580 226.7871 0001327  90.7478 204.9355 15.31727759    11

Volg STARLINK-34673 in realtime met AllMySat

Download on the App Store